Flag for Germany Weather past 2 weeks in Wesseling, North Rhine-Westphalia, Germany

Now
44 °F

Overcast.


Feels Like: 40 °F
Forecast: 36 / 47 °F
Wind: 7 mph from Northwest

Location: Koeln / Bonn

Current Time: Apr 1, 2015 at 8:08:39 PM

Latest Report: Apr 1, 2015 at 7:00 PM


Visibility: 19 mi

Pressure: 30.09 "Hg

Humidity: 68%

Dew point: 34 °F

Location of WesselingLocation

Historic Weather in Wesseling — Graph

°F

Wesseling temperature yesterday

Maximum temperature yesterday: 54 °F (at 6:00 AM)
Minimum temperature yesterday: 41 °F (at 2:00 AM)
Average temperature yesterday: 48 °F

Past Weeks' High & Low Weather Summary

 TemperatureHumidityPressure
High64 °F (Mar 17, 6:00 PM)100% (Mar 19, 7:00 AM)30.38 "Hg (Mar 19, 7:00 AM)
Low29 °F (Mar 23, 5:00 AM)35% (Mar 17, 6:00 PM)29.32 "Hg (Mar 31, 6:00 AM)
Average45 °F77%29.97 "Hg
* Reported Mar 17 6:00 PM — Apr 1 7:00 PM, Wesseling, Weather by CustomWeather, © 2015

Note: Actual official high and low records may vary slightly from our data, if they occured in-between our weather recording intervals... More about our weather records

Advertising

Wesseling weather history for previous 24 hours

 ConditionsComfort  
Time TempWeatherWind HumidityBarometerVisibility
7:00 PM
Wed, Apr 1
44 °FOvercast.7 mph68%30.09 "Hg19 mi
6:00 PM46 °FPartly sunny.10 mph53%30.08 "Hg19 mi
5:00 PM47 °FPartly sunny.13 mph50%30.07 "Hg19 mi
4:00 PM45 °FPartly sunny.13 mph60%30.07 "Hg17 mi
3:00 PM46 °FScattered clouds.10 mph60%30.08 "Hg17 mi
2:00 PM45 °FPartly sunny.10 mph66%30.08 "Hg19 mi
1:00 PM40 °FPartly sunny.5 mph91%30.09 "Hg19 mi
12:00 PM39 °FSprinkles. Overcast.9 mph88%30.09 "Hg6 mi
11:00 AM41 °FQuite cool.7 mph77%30.07 "HgN/A
10:00 AM41 °FSprinkles. Overcast.8 mph75%30.05 "Hg16 mi
9:00 AM41 °FOvercast.8 mph72%30.02 "Hg22 mi
8:00 AM40 °FOvercast.8 mph71%29.99 "Hg19 mi
7:00 AM39 °FSprinkles. Overcast.8 mph74%29.97 "Hg12 mi
6:00 AM41 °FOvercast.8 mph67%29.94 "Hg25 mi
5:00 AM41 °FOvercast.7 mph67%29.93 "Hg31 mi
4:00 AM41 °FOvercast.7 mph66%29.91 "Hg31 mi
3:00 AM42 °FOvercast.7 mph65%29.89 "Hg16 mi
2:00 AM41 °FOvercast.7 mph76%29.88 "Hg31 mi
1:00 AM40 °FPassing clouds.6 mph78%29.88 "Hg37 mi
12:00 AM42 °FPassing clouds.9 mph73%29.85 "Hg37 mi
11:00 PM
Tue, Mar 31
42 °FOvercast.9 mph75%29.84 "Hg31 mi
10:00 PM42 °FThunderstorms. Overcast.7 mph77%29.83 "Hg28 mi
9:00 PM42 °FThunderstorms. Overcast.9 mph82%29.83 "Hg25 mi
8:00 PM43 °FRain. Overcast.13 mph77%29.82 "Hg2 mi
Weather by CustomWeather, © 2015

See weather overviewHow to use our weather pages